"Pseudo-MPEC" for P10LqGV

Created 2019 Feb 4 3:18:15 UT using Find_Orb

Click here for an explanation of pseudo-MPECs

 
 Astrometry: 
     P10LqGV  C2019 01 11'Lu*I`qhoGl3FAstrometry3!S^gKYve6W\Oc;ODg$N7?yY4FKG8F51
     P10LqGV  C2019 01 11Od5kUmM*0h3U0l]!1]Zy]+!*wX+CNtm#^)n9PAw:d1ot#-u4D/3'F51
     P10LqGV  C2019 01 114OE\R*eFw;BuU,,%Zcf/Q0k2aredacted;1Wc]F8((kfGkd3_KsEF51
     P10LqGV  C2019 01 1141rs)X\@$tI`?i-1SIxltrk%%SuvF0XN1Q1i3RGaUa[DnFRqDxkpF51
     P10LqGV ^C2019 01 12.67088715 07 04.425-14 50 42.92   ~1CJI 21.00GVNEOCP568
     P10LqGV ^C2019 01 12.67206515 07 04.550-14 50 43.35   ~1CJI 21.27GVNEOCP568
     P10LqGV ^C2019 01 12.67324415 07 04.654-14 50 43.75   ~1CJI 21.47GVNEOCP568
     P10LqGV ^C2019 01 14.63563915 10 28.518-15 02 39.08   ~1ENI 20.97GVNEOCP568
     P10LqGV ^C2019 01 14.63682315 10 28.638-15 02 39.41   ~1ENI 20.80GVNEOCP568
     P10LqGV ^C2019 01 14.63800215 10 28.762-15 02 39.85   ~1ENI 21.05GVNEOCP568
     P10LqGV  C2019 01 17.53113 15 15 23.93 -15 19 25.1    ~1HEI 19.8 GVNEOCPI52
     P10LqGV  C2019 01 17.53684 15 15 24.54 -15 19 27.0    ~1HEI       VNEOCPI52
     P10LqGV  C2019 01 17.54255 15 15 25.18 -15 19 30.0    ~1HEI 20.6 GVNEOCPI52
     P10LqGV  C2019 01 17.54505 15 15 25.29 -15 19 29.6    ~1HEI 20.6 GVNEOCPI52
     P10LqGV ^C2019 01 19x\V*ma;6NG7ixJ!lpS=o+ceO3;'3A%i$5sKPclickibXjyGGRLHx695
     P10LqGV ^C2019 01 19WjlLqnPIL?wwI@9'0mNWE%wwZ9huryee6ENfn_kQ.1E5v8=S7r34695
     P10LqGV ^C2019 01 19k-eqCdEcYyH$PVjuEfgcsX[,Ghere*TOuv)f^I7[36yl5GKfX;;W695
     P10LqGV  C2019 01 24.51947 15 26 50.44 -15 55 53.5    ~1OFI       VNEOCPI52
     P10LqGV KC2019 01 24;b9ok5EuU]xm?1]rXs?)9QxTc3k]A-9\I,+ouQDQ4Bx-S[%1.ynG291
     P10LqGV  C2019 01 24.52197 15 26 50.71 -15 55 53.2    ~1OFI 20.6 GVNEOCPI52
     P10LqGV  C2019 01 24.52446 15 26 50.99 -15 55 54.6    ~1OFI 21.8 GVNEOCPI52
     P10LqGV  C2019 01 24.52696 15 26 51.16 -15 55 55.9    ~1OFI       VNEOCPI52
     P10LqGV KC2019 01 24Q!.D7XPC'LtKWbGUJTjOfy(43[VZ:$1o2U-D`PK2$forPifwx6RB291
     P10LqGV IC2019 02 025ARp60'+C78AwhmcFw,3O^#[wSV9R55*_K;AV82IYckL8$2%Sp\h711
     P10LqGV KC2019 02 028##CcN8*_Pbc%Sj+kH=JUg-CqAXU,JX0GA8_%Qiu9-Tmw_8yVcTw711
     P10LqGV KC2019 02 02l!+$eSF$8%/\!IiU@oT?%qM#g$XMaJ(explanationl)HEOL8.5N711

Station data:
(291) LPL/Spacewatch II  (N31.961669 W111.599905)  US/Arizona.  Observers J.
   V. Scotti, R. S. McMillan. 1.8-m f/2.7 reflector + CCD.
(568) Mauna Kea  (N19.826116 W155.472200)  US/Hawaii.
(695) Kitt Peak  (N31.958398 W111.594670)  US/Arizona.
(711) McDonald Observatory, Fort Davis  (N30.671481 W104.021500)  US/Texas.
   0.76-m f/3.0 reflector.
(F51) Pan-STARRS 1, Haleakala  (N20.707235 W156.255910)  US/Hawaii.
   Observers N. Primak, A. Schultz, S. Watters, J. Thiel, T. Goggia. Measurer
   PS1 Science Consortium. 1.8-m Ritchey-Chrétien + CCD.
(I52) Steward Observatory, Mt. Lemmon Station  (N32.442547 W110.788920)
   US/Arizona.  Observers B. M. Africano, E. J. Christensen, G. A. Farneth,
   D. C. Fuls, A. R. Gibbs, A. D. Grauer, H. Groeller, J. A. Johnson, R. A.
   Kowalski, S. M. Larson, G. J. Leonard, R. L. Seaman, F. C. Shelly. 1.0-m
   reflector + CCD.

Orbital elements:  P10LqGV
   Perihelion 2018 Aug 25.665340 +/- 4.44 TT = 15:58:05 (JD 2458356.165340)
Epoch 2019 Feb  2.0 TT = JDT 2458516.5   Earth MOID: 0.8604   Ju: 0.6373
M  28.68901867 +/- 2.4              (J2000 ecliptic)          AutoNEOCP
n   0.17893210 +/- 0.0111           Peri.   18.17461 +/- 1.9
a   3.11896521 +/- 0.129            Node   127.40893 +/- 0.42
e   0.4075641 +/- 0.0179            Incl.    2.96307 +/- 0.0031
P   5.51                   H 16.6   G  0.15   U  9.7  
q 1.84778668 +/- 0.023    Q 4.39014374 +/- 0.263
From 26 observations 2019 Jan. 11-Feb. 2; mean residual 0".53
Residuals in arcseconds: 
190111 F51  .11-  .29-    190114 568  .41+  .04-    190124 291  .22+  .11-    
190111 F51  .06-  .22-    190117 I52  1.1-  .48+    190124 I52  .16-  .01-    
190111 F51  .33-  .01-    190117 I52  .54-  .52+    190124 I52  .50+  .68-    
190111 F51  .18-  .11-    190117 I52  .48+  .54-    190124 I52  .45-  1.3-    
190112 568  .22+  .17-    190117 I52  1.5-  .71+    190124 291  .24+  .01+    
190112 568  .27+  .16-    190119 695  1.1+  1.4+    190202 711  .17+  .49+    
190112 568  .02+  .12-    190119 695  .39+  .63+    190202 711  .41-  .01-    
190114 568  .36+  .12-    190119 695  .07+  .26+    190202 711  .21+  .06+    
190114 568  .35+  .02-    190124 I52  .66-  1.0-    

Ephemerides (geocentric):
Date (UTC) HH   RA              Dec         delta   r     elong  mag " sig PA
---- -- -- --  -------------   -----------  ------ ------ -----  --- ---- ---
2019 02 04 03  15 42 50.328   -16 40 32.68  2.2290 2.2329  77.5 21.3 .493  58
2019 02 04 04  15 42 53.883   -16 40 41.74  2.2286 2.2331  77.5 21.3 .495  57
2019 02 04 05  15 42 57.436   -16 40 50.79  2.2283 2.2333  77.5 21.3 .498  57
2019 02 04 06  15 43 00.987   -16 40 59.83  2.2280 2.2334  77.5 21.3 .501  57
2019 02 04 07  15 43 04.536   -16 41 08.85  2.2276 2.2336  77.6 21.3 .503  56
2019 02 04 08  15 43 08.083   -16 41 17.87  2.2273 2.2338  77.6 21.3 .506  56
2019 02 04 09  15 43 11.629   -16 41 26.87  2.2270 2.2339  77.6 21.3 .509  56
2019 02 04 10  15 43 15.173   -16 41 35.86  2.2266 2.2341  77.7 21.3 .511  56
2019 02 04 11  15 43 18.715   -16 41 44.84  2.2263 2.2343  77.7 21.3 .514  55
2019 02 04 12  15 43 22.255   -16 41 53.81  2.2259 2.2344  77.7 21.3 .516  55
2019 02 04 13  15 43 25.793   -16 42 02.77  2.2256 2.2346  77.7 21.3 .519  55
2019 02 04 14  15 43 29.330   -16 42 11.71  2.2253 2.2347  77.8 21.3 .522  55
2019 02 04 15  15 43 32.864   -16 42 20.65  2.2249 2.2349  77.8 21.3 .525  54
2019 02 04 16  15 43 36.397   -16 42 29.57  2.2246 2.2351  77.8 21.3 .527  54
2019 02 04 17  15 43 39.928   -16 42 38.48  2.2243 2.2352  77.9 21.3 .530  54
2019 02 04 18  15 43 43.458   -16 42 47.38  2.2239 2.2354  77.9 21.3 .533  54
2019 02 04 19  15 43 46.985   -16 42 56.27  2.2236 2.2356  77.9 21.3 .535  53
2019 02 04 20  15 43 50.511   -16 43 05.15  2.2233 2.2357  77.9 21.3 .538  53
2019 02 04 21  15 43 54.034   -16 43 14.02  2.2229 2.2359  78.0 21.3 .541  53
2019 02 04 22  15 43 57.556   -16 43 22.87  2.2226 2.2361  78.0 21.3 .544  52
2019 02 04 23  15 44 01.076   -16 43 31.72  2.2223 2.2362  78.0 21.3 .546  52
2019 02 05 00  15 44 04.595   -16 43 40.55  2.2219 2.2364  78.0 21.3 .549  52
2019 02 05 01  15 44 08.111   -16 43 49.37  2.2216 2.2366  78.1 21.3 .552  52
2019 02 05 02  15 44 11.626   -16 43 58.18  2.2212 2.2367  78.1 21.3 .555  51
2019 02 05 03  15 44 15.139   -16 44 06.98  2.2209 2.2369  78.1 21.3 .558  51
2019 02 05 04  15 44 18.649   -16 44 15.76  2.2206 2.2371  78.2 21.3 .561  51
2019 02 05 05  15 44 22.159   -16 44 24.54  2.2202 2.2372  78.2 21.3 .563  51
2019 02 05 06  15 44 25.666   -16 44 33.30  2.2199 2.2374  78.2 21.3 .566  50
2019 02 05 07  15 44 29.171   -16 44 42.06  2.2196 2.2376  78.2 21.3 .569  50
2019 02 05 08  15 44 32.675   -16 44 50.80  2.2192 2.2377  78.3 21.3 .572  50
2019 02 05 09  15 44 36.177   -16 44 59.53  2.2189 2.2379  78.3 21.3 .575  50
2019 02 05 10  15 44 39.677   -16 45 08.25  2.2185 2.2381  78.3 21.3 .578  49
2019 02 05 11  15 44 43.175   -16 45 16.95  2.2182 2.2382  78.4 21.3 .581  49
2019 02 05 12  15 44 46.671   -16 45 25.65  2.2179 2.2384  78.4 21.3 .584  49
2019 02 05 13  15 44 50.165   -16 45 34.34  2.2175 2.2386  78.4 21.3 .587  49
2019 02 05 14  15 44 53.658   -16 45 43.01  2.2172 2.2387  78.4 21.3 .590  48
2019 02 05 15  15 44 57.148   -16 45 51.67  2.2169 2.2389  78.5 21.3 .593  48
2019 02 05 16  15 45 00.637   -16 46 00.32  2.2165 2.2391  78.5 21.3 .596  48
2019 02 05 17  15 45 04.124   -16 46 08.96  2.2162 2.2392  78.5 21.3 .599  48
2019 02 05 18  15 45 07.609   -16 46 17.59  2.2158 2.2394  78.6 21.3 .602  47
2019 02 05 19  15 45 11.093   -16 46 26.21  2.2155 2.2396  78.6 21.3 .605  47
2019 02 05 20  15 45 14.574   -16 46 34.81  2.2152 2.2397  78.6 21.3 .608  47
2019 02 05 21  15 45 18.054   -16 46 43.41  2.2148 2.2399  78.6 21.3 .611  47
2019 02 05 22  15 45 21.531   -16 46 51.99  2.2145 2.2401  78.7 21.3 .614  46
2019 02 05 23  15 45 25.007   -16 47 00.56  2.2142 2.2402  78.7 21.3 .617  46
2019 02 06 00  15 45 28.481   -16 47 09.12  2.2138 2.2404  78.7 21.3 .620  46
2019 02 06 01  15 45 31.953   -16 47 17.67  2.2135 2.2406  78.7 21.3 .623  46
2019 02 06 02  15 45 35.424   -16 47 26.21  2.2131 2.2407  78.8 21.3 .626  45